Location: Ferchesar
(52.6477°N, 12.4298°E)
Time: 03:03:35
(UTC+01:00)

Vanguard 1 - Pass Details

Date: 12 December 2021
Orbit: 652 x 3830 km, 34.2° (Epoch: 21 January)

Event Time Altitude Azimuth Distance (km) Brightness Sun altitude
Rises 19:18:59 0° 179° (S) 5,807 14.0 -29.4°
Reaches altitude 10° 19:24:47 10° 160° (SSE) 5,400 13.6 -30.3°
Enters shadow 19:29:32 15° 142° (SE) 5,390 13.4 -31.0°
Maximum altitude 19:33:34 16° 128° (SE) 5,590 - -31.6°
Drops below altitude 10° 19:44:09 10° 98° (E) 6,717 - -33.2°
Sets 19:52:58 0° 82° (E) 7,964 - -34.6°
